Weather History for MMDO - October, 2012

Change the Weather History Date:

Monday, October 1, 2012

  Actual Average Record
Temperature  
Mean Temperature 66 °F -  
Max Temperature 81 °F 77 °F - (-1)
Min Temperature 51 °F 47 °F - (-1)
Cooling Degree Days 1    
Growing Degree Days 16 (Base 50)    
Moisture  
Dew Point 43 °F    
Average Humidity 47    
Maximum Humidity 94    
Minimum Humidity 20    
Precipitation  
Precipitation 0.00 in - - ()
Sea Level Pressure  
Sea Level Pressure 29.99 in    
Wind  
Wind Speed 3 mph ()    
Max Wind Speed 13 mph    
Max Gust Speed -    
Visibility 12.5 miles    
Events      
Averages and records for this station are not official NWS values.
T = Trace of Precipitation, MM = Missing Value Source: Averaged Metar Reports

Daily Weather History Graph

Daily Weather History Graph

Search for Another Location

Airport or City:

Trip Planner

Search our weather history database for the weather conditions in past years. The results will help you decide how hot, cold, wet, or windy it might be!

Date:

Astronomy

Oct. 01, 2012 Rise Set
Actual Time 7:50 AM CDT 7:44 PM CDT
Civil Twilight 7:27 AM CDT 8:07 PM CDT
Nautical Twilight 7:01 AM CDT 8:33 PM CDT
Astronomical Twilight 6:34 AM CDT 8:59 PM CDT
Moon 8:40 PM CDT (10/1) 9:06 AM CDT (10/1)
Length of Visible Light 12h 39m
Length of Day
11h 54m
Full, 98% of the Moon is Illuminated
Oct 1
Full
Oct 8
Last Quarter
Oct 15
New
Oct 21
First Quarter
Oct 29
Full

Hourly Weather History & Observations

Time (CDT) Temp. Dew Point Humidity Pressure Visibility Wind Dir Wind Speed Gust Speed Precip Events Conditions
12:56 AM 63 °F 54 °F 65% 29.79 in 6 mi NE 2.2 mph - -   Overcast
3:59 AM 61 °F 51 °F 61% 29.81 in 6 mi Calm Calm - -   Overcast
6:04 AM 55.4 °F 51.8 °F 88% 30.20 in 7.0 mi ENE 4.6 mph - N/A   Mostly Cloudy
6:44 AM 59 °F 52 °F 71% 29.86 in 6 mi Calm Calm - -   Overcast
6:49 AM 53.6 °F 51.8 °F 94% 29.85 in 10.0 mi NE 2.3 mph - N/A   Mostly Cloudy
7:47 AM 51.8 °F 50.0 °F 94% 30.22 in 14.0 mi North 3.5 mph - N/A   Scattered Clouds
8:48 AM 53.6 °F 50.0 °F 88% 30.24 in 14.0 mi Calm Calm - N/A   Partly Cloudy
9:39 AM 59 °F 52 °F 71% 29.93 in 19 mi Calm Calm - -   Scattered Clouds
9:48 AM 62.6 °F 50.0 °F 63% 29.88 in 14.0 mi SW 2.3 mph - N/A   Clear
10:42 AM 64.4 °F 48.2 °F 56% 30.24 in 14.0 mi NNW 3.5 mph - N/A   Clear
11:45 AM 69.8 °F 41.0 °F 35% 30.24 in 14.0 mi North 5.8 mph - N/A   Clear
12:47 PM 74 °F 49 °F 30% 29.88 in 25 mi Calm Calm - -  
12:50 PM 71.6 °F 32.0 °F 23% 29.83 in 14.0 mi North 5.8 mph - N/A   Clear
1:43 PM 73.4 °F 30.2 °F 20% 30.20 in 14.0 mi NE 4.6 mph - N/A   Clear
2:46 PM 75.2 °F 33.8 °F 22% 30.16 in 14.0 mi NE 5.8 mph - N/A   Clear
3:40 PM 80 °F 48 °F 23% 29.64 in 25 mi North 2.2 mph - -   Scattered Clouds
3:44 PM 75.2 °F 33.8 °F 22% 29.77 in 14.0 mi North 4.6 mph - N/A   Clear
4:41 PM 75.2 °F 32.0 °F 21% 30.14 in 14.0 mi North 11.5 mph - N/A   Clear
5:41 PM 75.2 °F 32.0 °F 21% 30.14 in 14.0 mi NNW 12.7 mph - N/A   Clear
6:45 PM 77 °F 51 °F 29% 29.64 in 25 mi NNE 2.2 mph - -   Scattered Clouds
6:47 PM 73.4 °F 32.0 °F 22% 29.82 in 14.0 mi NNW 9.2 mph - N/A   Clear
7:41 PM 69.8 °F 37.4 °F 31% 30.15 in 14.0 mi NNW 6.9 mph - N/A   Partly Cloudy
9:45 PM 60.8 °F 37.4 °F 42% 30.20 in 14.0 mi NNW 6.9 mph - N/A   Partly Cloudy